Location: Harwich
(41.7160°N, 69.9939°W)
Time: 05:03:21
(UTC+01:00)

Vanguard 1 - All Passes

Search period start: 30 January 2023 00:00
Search period end: 09 February 2023 00:00
Orbit: 649 x 3831 km, 34.2° (Epoch: 29 January)

Date Brightness Start Highest point End Pass type
(mag) Time Alt. Az. Time Alt. Az. Time Alt. Az.
30 Jan - 10:50:16 10° SSW 10:57:41 39° SSE 11:10:29 10° E visible
30 Jan - 13:08:29 10° WSW 13:19:04 64° S 13:38:18 10° E daylight
30 Jan - 15:28:46 10° W 15:43:02 59° SSW 16:05:09 10° SE daylight
30 Jan - 17:51:28 10° W 18:07:41 36° SW 18:27:26 10° SSE daylight
30 Jan - 20:24:41 10° WSW 20:30:54 12° SW 20:37:13 10° SW daylight
31 Jan - 08:55:57 10° SSE 08:59:04 13° SE 09:02:51 10° ESE visible
31 Jan - 11:10:13 10° SW 11:17:56 46° SSE 11:31:49 10° E visible
31 Jan - 13:28:56 10° WSW 13:39:50 65° S 13:59:29 10° ESE daylight
31 Jan - 15:49:29 10° W 16:03:55 54° SSW 16:25:39 10° SE daylight
31 Jan - 18:13:01 10° W 18:28:16 30° SW 18:46:19 10° SSE daylight
01 Feb - 09:14:12 10° S 09:18:54 19° SE 09:25:28 10° E visible
01 Feb - 11:30:20 10° SW 11:38:20 53° SSE 11:53:04 10° E visible
01 Feb - 13:49:26 10° W 14:00:38 63° S 14:20:34 10° ESE daylight
01 Feb - 16:10:17 10° W 16:24:44 47° SSW 16:45:50 10° SE daylight
01 Feb - 18:35:10 10° W 18:48:48 23° SW 19:04:27 10° S daylight
02 Feb - 09:33:25 10° SSW 09:38:52 26° SE 09:47:12 10° E visible
02 Feb - 11:50:35 10° WSW 11:58:51 57° SSE 12:14:17 10° E visible
02 Feb - 14:09:58 10° W 14:21:28 60° S 14:41:30 10° ESE daylight
02 Feb - 16:31:14 10° W 16:45:31 41° SSW 17:05:41 10° SSE daylight
02 Feb - 18:58:28 10° WSW 19:09:17 17° SW 19:21:17 10° SSW daylight
03 Feb - 09:53:03 10° SSW 09:58:57 33° SSE 10:08:36 10° E visible
03 Feb - 12:10:56 10° WSW 12:19:27 60° S 12:35:28 10° E visible
03 Feb - 14:30:34 10° W 14:42:17 55° SSW 15:02:15 10° SE daylight
03 Feb - 16:52:24 10° W 17:06:15 34° SSW 17:25:03 10° SSE daylight
03 Feb - 19:25:37 10° WSW 19:29:47 11° SW 19:34:06 10° SW daylight
04 Feb - 10:12:59 10° SW 10:19:10 41° SSE 10:29:51 10° E visible
04 Feb - 12:31:20 10° WSW 12:40:08 61° S 12:56:36 10° ESE daylight
04 Feb - 14:51:13 10° W 15:03:05 50° SSW 15:22:45 10° SE daylight
04 Feb - 17:13:57 10° W 17:26:57 27° SW 17:43:51 10° SSE daylight
05 Feb - 08:17:26 10° S 08:20:33 15° SE 08:24:25 10° ESE visible
05 Feb - 10:33:05 10° SW 10:39:31 47° SSE 10:51:00 10° E visible
05 Feb - 12:51:47 10° W 13:00:50 59° S 13:17:38 10° ESE daylight
05 Feb - 15:11:59 10° W 15:23:53 43° SSW 15:42:55 10° SE daylight
05 Feb - 17:36:09 10° W 17:47:36 21° SW 18:01:47 10° S daylight
06 Feb - 08:36:24 10° SSW 08:40:33 21° SE 08:46:17 10° E visible
06 Feb - 10:53:19 10° WSW 10:59:58 52° SSE 11:12:07 10° E visible
06 Feb - 13:12:16 10° W 13:21:33 56° S 13:38:32 10° ESE daylight
06 Feb - 15:32:55 10° W 15:44:40 37° SSW 16:02:43 10° SSE daylight
06 Feb - 17:59:45 10° WSW 18:08:17 15° SW 18:18:08 10° SSW daylight
07 Feb - 08:55:58 10° SSW 09:00:39 28° SSE 09:07:38 10° E visible
07 Feb - 11:13:37 10° WSW 11:20:30 55° S 11:33:11 10° E visible
07 Feb - 13:32:50 10° W 13:42:18 51° SSW 13:59:14 10° SE daylight
07 Feb - 15:54:05 10° W 16:05:27 30° SSW 16:22:01 10° SSE daylight
08 Feb - 09:15:52 10° SW 09:20:52 35° SSE 09:28:46 10° E visible
08 Feb - 11:34:00 10° WSW 11:41:06 56° S 11:54:12 10° ESE visible
08 Feb - 13:53:27 10° W 14:03:03 45° SSW 14:19:41 10° SE daylight
08 Feb - 16:15:42 10° W 16:26:14 24° SSW 16:40:40 10° S daylight
